www.pogodaiklimat.ru

Погода и климат >> Архив погоды >> Россия >> Якутия >> Юрты


ПОГОДА в Юртах

  • Прогноз погоды в Юртах
  • Монитор погоды в Юртах

АРХИВ ПОГОДЫ в Юртах

Время (UTC), дата Ветер
(напр.,м/с)
 
Видим.   Явления Облачность Т
(С)
Тd
(С)
f
(%)
Тe
(С)
Тes
(С)
Комфортность P
(гПа)
Po
(гПа)
Тmin
(С)
Tmax
(С)
R
(мм)
R24
(мм)
S
(см)
18 16.08 штиль 0 50 км ясно +1.6 +0.8 94 0 0 1022.7 951.0
00 17.08 штиль 0 50 км 4/0
[Ci fib]
+12.9 +5.2 59 +13 +20 1021.4 952.5 -0.1
06 17.08 СЗ 1 50 км 10/0
[Ci fib]
+24.0 +5.2 30 +24 +28 комфорт 1015.6 949.5
12 17.08 штиль 0 50 км 8/0
[Ci fib]
+10.8 +8.6 86 +10 +10 1019.2 950.0 +24.6
18 17.08 штиль 0 50 км 10/0
[Ci fib]
+2.6 +1.8 94 +1 +1 1022.7 951.3
00 18.08 штиль 0 20 км дым 10/0
[Cs]
+10.8 +6.3 74 +10 +17 1021.4 952.1 +1.6
06 18.08 штиль 0 20 км дым 10/0
[Cs]
+22.5 +5.9 34 +23 +28 комфорт 1015.6 949.3
12 18.08 ЮВ 1 20 км дым 10/0
[Ac As]
+11.4 +8.8 84 +11 +11 1017.9 948.9 +22.8
18 18.08 штиль 0 20 км дым 10/0
[Ac trans Ci fib]
+3.9 +3.2 95 +3 +3 1021.6 950.6
00 19.08 штиль 0 20 км дым 10/0
[Cs]
+13.9 +4.1 52 +14 +20 1020.3 951.7 +0.2
06 19.08 Ю 3 50 км 10/0
[Cs]
+23.1 +3.9 29 +23 +26 комфорт 1015.5 949.3
12 19.08 штиль 0 50 км 10/0
[Ac trans Ci fib]
+13.4 +7.7 68 +13 +13 1017.8 949.3 +23.2
18 19.08 Ю 3 50 км 10/0
[Ac trans Ci fib]
+11.9 +6.7 70 +10 +10 1019.6 950.6
00 20.08 ЮВ 3 50 км 3/0
[Ci fib]
+16.6 +5.1 47 +16 +21 1019.1 951.2 +5.9
06 20.08 ЮВ 2 50 км 9/3 600 м
[Cu hum Ci sp]
+21.8 +6.3 37 +23 +25 комфорт 1016.1 949.6
12 20.08 штиль 0 50 км ясно +11.6 +6.8 72 +11 +11 1018.8 949.9 +21.9
18 20.08 штиль 0 50 км ясно +1.4 +0.6 94 0 0 1023.2 951.4
00 21.08 Ю 3 50 км 3/0
[Ci fib]
+13.0 +6.3 64 +12 +16 1020.6 951.8 +0.4
06 21.08 штиль 0 50 км 8/0
[Cs]
+23.5 +7.0 35 +24 +29 комфорт 1014.9 948.8
12 21.08 ЮВ 1 50 км 6/0
[Ac trans Ci fib]
+10.7 +9.3 91 +10 +10 1017.3 948.3 +24.3
18 21.08 штиль 0 50 км 3/0
[Ac trans Ci fib]
+3.1 +2.3 94 +2 +2 1020.3 949.2
00 22.08 Ю 1 50 км 10/0
[Ci fib]
+12.7 +5.7 62 +13 +18 1017.8 949.2 +1.0
06 22.08 штиль 0 50 км 10/3 600 м
[Cu med, cong Cs]
+25.0 +5.1 28 +25 +28 комфорт 1011.7 946.1
12 22.08 штиль 0 50 км 8/4 1000 м
[Sc Ci fib]
+13.2 +8.4 73 +13 +13 1013.7 945.5 +25.7
18 22.08 штиль 0 50 км 10/5 50 м
[Sc Ci fib]
+6.0 +4.6 91 +5 +5 1017.0 946.8
00 23.08 З 1 50 км 10/4 1000 м
[Sc Ci fib]
+14.4 +8.2 66 +15 +18 1014.9 946.8 +4.4
06 23.08 Ю 4 50 км 10/0
[Cs]
+23.1 +6.9 35 +24 +26 комфорт 1009.6 943.8
12 23.08 штиль 0 50 км 9/6 600 м
[Cb cap Ac As]
+14.9 +10.1 73 +15 +15 1011.2 943.6 +23.9

 

Местоположение метеостанции Юрты (Якутия, Россия): широта 64.05 долгота 141.80 высота над уровнем моря 590 м.

В архиве по умолчанию представлена погода в Юртах за последнюю неделю. Архивные данные за месяц целиком и за предыдущие месяцы, начиная с января 2011 года, Вы можете получить, выбрав интересующий диапазон дат из раскрывающегося списка и нажав кнопку "Ввод!".


*Определитесь, кто Вы:
робот инопланетянин человек

Внимание! Время в таблицах - всемирное. Для получения местного времени необходимо прибавить поправку, которая равна 10 ч.

Смотрите также архив погоды в соседних городах и на ближайших метеорологических станциях:

Погода в Агаякане (Якутия, Россия) (80 км)
Погода в Усть-Нере (Якутия, Россия) (82 км)
Погода в Оймяконе (Якутия, Россия) (110 км)
Погода в Восточной (Якутия, Россия) (142 км)
Погода в Делянкире (Якутия, Россия) (187 км)
Погода в Усть-Моме (Якутия, Россия) (275 км)
Погода в Теплом Ключе (Якутия, Россия) (286 км)
Погода в Томпо (Якутия, Россия) (293 км)
Погода в Иэме (Якутия, Россия) (317 км)
Погода в Сусумане (Магаданская область, Россия) (344 км)

Пояснения к столбцам:

Ветер - указаны скорость ветра в м/с - средняя за 10 мин, порывы в срок и между сроками (в фигурных скобках) и направление, откуда дует ветер: С - северный, СВ - северо-восточный, В - восточный, ЮВ - юго-восточный, Ю - южный, ЮЗ - юго-западный, З - западный, СЗ - северо-западный.
Видимость - горизонтальная дальность видимости в метрах или километрах. При видимости от 1 до 10 км при отсутствии осадков обычно наблюдается дымка, при ухудшении видимости до 1 км и менее - туман. В сухую погоду видимость может ухудшаться дымом, пылью или мглою.
Явления - указаны атмосферные явления, наблюдавшиеся в срок или в последний час перед сроком; фигурными скобками обозначены явления, наблюдавшиеся между сроками (за 1-3 часа до срока); квадратными скобками обозначены град или гололедные отложения с указанием их диаметра в мм.
Облачность - указаны через наклонную черту общая и нижняя облачность в баллах и высота нижней границы облаков в метрах; квадратными скобками обозначены формы облаков: Ci - перистые, Cs - перисто-слоистые, Cc - перисто-кучевые, Ac - высококучевые, As - высокослоистые, Sc - слоисто-кучевые, Ns - слоисто-дождевые, Cu - кучевые, Cb - кучево-дождевые. Подробнее классификацию облаков см. в Атласе облаков (PDF).
T - Температура воздуха - температура, измеренная на высоте 2 м над землей.
Td - Температура точки росы - температура, при понижении до которой содержащийся в воздухе водяной пар достигнет насыщения.
f - Относительная влажность воздуха - влажноcть воздуха, измеренная на высоте 2 м над землей.
Te - Эффективная температура - температура, которую ощущает одетый по сезону человек в тени. Характеристика душности погоды. При расчете учитывается влияние влажности воздуха и скорости ветра на теплоощущения человека.
Tes - Эффективная температура на солнце - температура, которую ощущает человек, с поправкой на солнечный нагрев. Характеристика знойности погоды. Зависит от высоты солнца над горизонтом, облачности и скорости ветра. Ночью, в пасмурную погоду, а также при ветре 12 м/с и более поправка равна нулю.
P - Атмосферное давление - приведенное к уровню моря атмосферное давление.
Po - Атмосферное давление - измеренное на уровне метеостанции атмосферное давление.
Tmin - Минимальная температура - минимум температуры воздуха на высоте 2 м над землей.
Tmax - Максимальная температура - максимум температуры воздуха на высоте 2 м над землей.
R - Количество осадков - Количество выпавших осадков за период времени, мм. При наведении курсора мыши на число - период времени, за который выпало указанное количество осадков.
R24 - Количество осадков - Количество выпавших осадков за 24 часа, мм.
S - Снежный покров - Высота снежного покрова, см. При наведении курсора мыши на число - состояние снежного покрова и степень покрытия местности в баллах.